SL-8 DEB, 1590

Orbit data source: Space-Track

SL-8 DEB, 1590 is space debris in LEO originally from a launch on Sat, 18 Sep 1965 UTC launched from the Tyuratam Missile And Space Complex (TTMTR). Debris objects in space refer to the collection of defunct objects orbiting the Earth. Examples of debris include non-operational satellites, rocket bodies, and fragments generated from explosions, collisions, or faulty payload assembly.

Loading next visibility...
Identifier
1590, 1965-073G
Orbit
LEO
Country
Flag of CISCIS
Related business
Manufacturer
Unknown
Mission
Spacecraft
Bus & Motor
Unknown
Mass
Unknown
Launch date (UTC)
1965-09-18 (60 years ago)
Launch vehicle
Unknown
Launch site
Tyuratam Missile And Space Complex (TTMTR)
Object type
Payload
Rocket body
Debris
Shape & HBR
Unknown
Radar Cross Section
Small (<0.1 m²)

Expand to show TLE details & history
Last TLE update: 1 day ago

TLE from 1 day ago
0 SL-8 DEB
1 01590U 65073G   25259.74358803  .00000084  00000-0  11209-2 0  9994
2 01590  56.0824 113.0291 0181287  31.2778  41.9853 12.49688117724150
Epoch: 2025-09-16T17:50Z
TLE epoch observation values (Epoch: 2025-09-16T17:50:46.005Z)
Latitude
53.29353°
Longitude
-86.77186°
Altitude
1,368.263 km
Speed
7.228 km/s
True Right ascension
11h 47m 23s
True Declination
53° 08' 30"
Sunlit
Object was in daylight at epoch
Visualization orbit readout
Latitude
Unknown
Longitude
Unknown
Altitude
Unknown
Speed
Unknown
Apparent Right ascension
Unknown
Apparent Declination
Unknown
Sunlit
N/A
Visualization observer readout
Local Sidereal Time
16:37:05
Azimuth
Unknown
Elevation
Unknown
Doppler factor
Unknown
Orbital elements
Apogee altitude
1,607.817 km
Perigee altitude
1,323.422 km
Semi-major axis
7,843.756 km
Eccentricity
0.01813
Inclination
56.0824°
RAAN
113.0291°
Arg. of periapsis
31.2778°
True anomaly
43.3986°
Mean anomaly
41.9853°
Eccentric anomaly
42.68956°
Mean motion
3.12433 °/min
Orbital period
115.22 mins
BSTAR
0.0011209
Loading maneuver chart data...
Computing Atmospheric mass density...
Loading historical data...
Loading historical data...
Loading historical data...
Loading historical data...
Loading historical data...
Loading historical data...
Loading historical data...

Documentation

Showing up to 5 results
|